Change the Weather History Date:

Saturday, August 9, 2014

  Actual Average Record
Temperature  
Mean Temperature 64 °F -  
Max Temperature 78 °F 65 °F 82 °F (2004)
Min Temperature 51 °F 50 °F 39 °F (2012)
Growing Degree Days 14 (Base 50)    
Moisture  
Dew Point 47 °F    
Average Humidity 57    
Maximum Humidity 77    
Minimum Humidity 30    
Precipitation  
Precipitation 0.00 in - - ()
Sea Level Pressure  
Sea Level Pressure 29.64 in    
Wind  
Wind Speed 8 mph (ENE)    
Max Wind Speed 17 mph    
Max Gust Speed 23 mph    
Visibility 10 miles    
Events Rain    
Averages and records for this station are not official NWS values.
T = Trace of Precipitation, MM = Missing Value Source: NWS Daily Summary

Daily Weather History Graph

Daily Weather History Graph

Search for Another Location

Airport or City:

Trip Planner

Search our weather history database for the weather conditions in past years. The results will help you decide how hot, cold, wet, or windy it might be!

Date:

Astronomy

Aug. 09, 2014 Rise Set
Actual Time 5:17 AM AKDT 10:31 PM AKDT
Civil Twilight 3:59 AM AKDT 11:47 PM AKDT
Nautical Twilight Sun does not rise Sun does not rise
Astronomical Twilight Sun does not rise Sun does not rise
Moon 9:21 PM AKDT (8/9) 4:11 AM AKDT (8/9)
Length of Visible Light 19h 47m
Length of Day
17h 13m
Waxing Gibbous, 99% of the Moon is Illuminated
Aug 9
Waxing Gibbous
Aug 10
Full
Aug 17
Last Quarter
Aug 25
New
Sep 2
First Quarter

Hourly Weather History & Observations

Time (AKDT) Temp. Dew Point Humidity Pressure Visibility Wind Dir Wind Speed Gust Speed Precip Events Conditions
12:56 AM 55.0 °F 48.0 °F 77% 29.64 in 10.0 mi NE 3.5 mph - N/A   Clear
1:56 AM 54.0 °F 46.0 °F 75% 29.65 in 10.0 mi East 9.2 mph - N/A   Clear
2:56 AM 54.0 °F 45.0 °F 72% 29.65 in 10.0 mi East 8.1 mph - N/A   Clear
3:56 AM 53.1 °F 44.1 °F 71% 29.65 in 10.0 mi ENE 8.1 mph - N/A   Clear
4:56 AM 52.0 °F 44.1 °F 74% 29.66 in 10.0 mi East 6.9 mph - N/A   Clear
5:56 AM 51.1 °F 43.0 °F 74% 29.66 in 10.0 mi ENE 5.8 mph - N/A   Clear
6:56 AM 53.1 °F 44.1 °F 71% 29.66 in 10.0 mi East 9.2 mph - N/A   Clear
7:56 AM 57.0 °F 45.0 °F 64% 29.66 in 10.0 mi East 8.1 mph - N/A   Clear
8:56 AM 63.0 °F 46.0 °F 54% 29.65 in 10.0 mi East 9.2 mph - N/A   Clear
9:56 AM 66.9 °F 46.0 °F 47% 29.65 in 10.0 mi East 9.2 mph - N/A   Clear
10:56 AM 69.1 °F 46.9 °F 45% 29.65 in 10.0 mi East 9.2 mph - N/A   Clear
11:56 AM 72.0 °F 46.0 °F 40% 29.65 in 10.0 mi East 6.9 mph - N/A   Clear
12:56 PM 73.9 °F 45.0 °F 35% 29.64 in 10.0 mi East 6.9 mph - N/A   Clear
1:56 PM 75.9 °F 46.0 °F 35% 29.63 in 10.0 mi East 11.5 mph 23.0 mph N/A   Clear
2:56 PM 77.0 °F 46.9 °F 34% 29.63 in 10.0 mi East 9.2 mph - N/A   Scattered Clouds
3:56 PM 78.1 °F 44.1 °F 30% 29.61 in 10.0 mi SSE 6.9 mph - N/A   Mostly Cloudy
4:56 PM 72.0 °F 48.9 °F 44% 29.63 in 10.0 mi East 17.3 mph 20.7 mph 0.00 in   Overcast
5:56 PM 64.9 °F 51.1 °F 61% 29.64 in 6.0 mi ENE 12.7 mph - N/A Rain Light Rain
6:56 PM 66.9 °F 54.0 °F 63% 29.63 in 10.0 mi ENE 5.8 mph - N/A   Overcast
7:56 PM 66.9 °F 55.9 °F 68% 29.64 in 10.0 mi ENE 4.6 mph - N/A   Overcast
8:56 PM 66.9 °F 53.1 °F 61% 29.64 in 10.0 mi ENE 5.8 mph - N/A   Overcast
9:56 PM 64.9 °F 52.0 °F 63% 29.64 in 10.0 mi ENE 6.9 mph - N/A   Partly Cloudy
10:56 PM 64.0 °F 48.0 °F 56% 29.65 in 10.0 mi ENE 8.1 mph - N/A   Clear
11:56 PM 61.0 °F 46.0 °F 58% 29.66 in 10.0 mi ENE 8.1 mph - N/A   Clear